| time (UTC) | temp F | wind direction | speed MPH | gust MPH | rain 1hr in | rain 24hr in | rain mn in | humidity % | barometer mb |
| 20260510001821 | 58 | 0 | 0.0 | 8.0 | 0.00 | 0.10 | 0.09 | 55 | 990.0 |
| 20260510000921 | 58 | 247 | 2.0 | 8.0 | 0.00 | 0.10 | 0.09 | 55 | 990.1 |
| 20260509235121 | 58 | 166 | 2.0 | 7.0 | 0.00 | 0.10 | 0.09 | 56 | 990.2 |
| 20260509234221 | 57 | 195 | 1.0 | 8.0 | 0.00 | 0.10 | 0.09 | 57 | 990.1 |
| 20260509233321 | 58 | 176 | 2.0 | 7.0 | 0.00 | 0.10 | 0.09 | 57 | 990.1 |
| 20260509232421 | 58 | 92 | 2.0 | 7.0 | 0.00 | 0.10 | 0.09 | 56 | 990.1 |
| 20260509230621 | 57 | 31 | 1.0 | 5.0 | 0.00 | 0.10 | 0.09 | 57 | 990.0 |
| 20260509225721 | 57 | 29 | 1.0 | 5.0 | 0.00 | 0.10 | 0.09 | 57 | 990.1 |
| 20260509224821 | 56 | 53 | 3.0 | 9.0 | 0.00 | 0.10 | 0.09 | 58 | 990.1 |
| 20260509223921 | 56 | 51 | 1.0 | 7.0 | 0.00 | 0.10 | 0.09 | 61 | 990.1 |
| 20260509223021 | 56 | 66 | 2.0 | 6.0 | 0.00 | 0.10 | 0.09 | 57 | 990.1 |
| 20260509222121 | 55 | 65 | 3.0 | 6.0 | 0.00 | 0.10 | 0.09 | 59 | 990.1 |
| 20260509221221 | 55 | 50 | 2.0 | 7.0 | 0.00 | 0.10 | 0.09 | 60 | 990.2 |
| 20260509220321 | 55 | 61 | 3.0 | 7.0 | 0.00 | 0.10 | 0.09 | 60 | 990.2 |
| 20260509211821 | 53 | 0 | 0.0 | 5.0 | 0.00 | 0.10 | 0.09 | 64 | 990.5 |
| 20260509210921 | 53 | 60 | 1.0 | 5.0 | 0.00 | 0.10 | 0.09 | 66 | 990.6 |
| 20260509210021 | 52 | 0 | 0.0 | 3.0 | 0.00 | 0.10 | 0.09 | 69 | 990.7 |
| 20260509205121 | 52 | 0 | 0.0 | 6.0 | 0.00 | 0.10 | 0.09 | 70 | 990.8 |
| 20260509204221 | 52 | 0 | 0.0 | 6.0 | 0.00 | 0.10 | 0.09 | 70 | 990.8 |
| 20260509202421 | 51 | 0 | 0.0 | 4.0 | 0.00 | 0.10 | 0.09 | 73 | 990.9 |
| 20260509201521 | 50 | 91 | 1.0 | 4.0 | 0.00 | 0.10 | 0.09 | 73 | 990.9 |
| 20260509200621 | 50 | 47 | 1.0 | 4.0 | 0.00 | 0.10 | 0.09 | 75 | 991.0 |
| 20260509195721 | 50 | 0 | 0.0 | 1.0 | 0.00 | 0.10 | 0.09 | 76 | 991.1 |
| 20260509194821 | 49 | 0 | 0.0 | 0.0 | 0.00 | 0.10 | 0.09 | 78 | 991.2 |
| 20260509193921 | 48 | 0 | 0.0 | 1.0 | 0.00 | 0.10 | 0.09 | 81 | 991.1 |
| 20260509193021 | 48 | 0 | 0.0 | 0.0 | 0.00 | 0.10 | 0.09 | 81 | 991.3 |
| 20260509192121 | 47 | 0 | 0.0 | 0.0 | 0.00 | 0.10 | 0.09 | 83 | 991.3 |
| 20260509190321 | 46 | 0 | 0.0 | 0.0 | 0.00 | 0.10 | 0.09 | 86 | 991.4 |
| 20260509185421 | 46 | 84 | 1.0 | 4.0 | 0.00 | 0.10 | 0.09 | 87 | 991.4 |
| 20260509184521 | 45 | 0 | 0.0 | 1.0 | 0.00 | 0.10 | 0.09 | 89 | 991.5 |
| 20260509183621 | 44 | 69 | 1.0 | 4.0 | 0.00 | 0.10 | 0.09 | 89 | 991.6 |
| 20260509182721 | 44 | 85 | 1.0 | 4.0 | 0.00 | 0.10 | 0.09 | 90 | 991.7 |
| 20260509181821 | 44 | 0 | 0.0 | 3.0 | 0.00 | 0.10 | 0.09 | 92 | 991.7 |
| 20260509180921 | 43 | 0 | 0.0 | 0.0 | 0.00 | 0.10 | 0.09 | 93 | 991.8 |
| 20260509180021 | 43 | 71 | 1.0 | 5.0 | 0.00 | 0.10 | 0.09 | 94 | 991.8 |
| 20260509175121 | 42 | 85 | 1.0 | 5.0 | 0.00 | 0.10 | 0.09 | 95 | 991.8 |
| 20260509174221 | 42 | 0 | 0.0 | 3.0 | 0.00 | 0.10 | 0.09 | 95 | 991.9 |
| 20260509173321 | 42 | 0 | 0.0 | 3.0 | 0.00 | 0.10 | 0.09 | 95 | 992.0 |
| 20260509172421 | 41 | 80 | 2.0 | 5.0 | 0.00 | 0.10 | 0.09 | 96 | 992.0 |
| 20260509170621 | 41 | 63 | 1.0 | 4.0 | 0.00 | 0.10 | 0.09 | 96 | 992.2 |
| 20260509165721 | 40 | 0 | 0.0 | 4.0 | 0.00 | 0.10 | 0.09 | 96 | 992.2 |
| 20260509164821 | 40 | 0 | 0.0 | 0.0 | 0.00 | 0.10 | 0.09 | 96 | 992.3 |
| 20260509163921 | 40 | 0 | 0.0 | 1.0 | 0.00 | 0.10 | 0.09 | 96 | 992.4 |
| 20260509163021 | 39 | 0 | 0.0 | 0.0 | 0.00 | 0.10 | 0.09 | 95 | 992.5 |
| 20260509162121 | 39 | 0 | 0.0 | 3.0 | 0.00 | 0.10 | 0.09 | 96 | 992.4 |
| 20260509161221 | 38 | 0 | 0.0 | 0.0 | 0.00 | 0.10 | 0.09 | 95 | 992.5 |
| 20260509155421 | 38 | 0 | 0.0 | 0.0 | 0.00 | 0.10 | 0.09 | 95 | 992.6 |
| 20260509154521 | 37 | 0 | 0.0 | 1.0 | 0.00 | 0.10 | 0.09 | 95 | 992.6 |
| 20260509153621 | 37 | 0 | 0.0 | 0.0 | 0.00 | 0.10 | 0.09 | 95 | 992.7 |
| 20260509152721 | 37 | 0 | 0.0 | 0.0 | 0.00 | 0.10 | 0.09 | 95 | 992.8 |
| 20260509151821 | 36 | 0 | 0.0 | 0.0 | 0.00 | 0.10 | 0.09 | 95 | 992.8 |
| 20260509145121 | 36 | 0 | 0.0 | 2.0 | 0.01 | 0.10 | 0.09 | 95 | 993.0 |
| 20260509144221 | 36 | 0 | 0.0 | 0.0 | 0.01 | 0.10 | 0.09 | 95 | 993.1 |
| 20260509143321 | 36 | 0 | 0.0 | 0.0 | 0.01 | 0.10 | 0.09 | 95 | 993.2 |
| 20260509141521 | 36 | 0 | 0.0 | 2.0 | 0.01 | 0.10 | 0.09 | 95 | 993.4 |
| 20260509140621 | 36 | 0 | 0.0 | 2.0 | 0.02 | 0.10 | 0.09 | 95 | 993.5 |
| 20260509134821 | 36 | 0 | 0.0 | 3.0 | 0.02 | 0.09 | 0.08 | 95 | 993.7 |
| 20260509133921 | 36 | 0 | 0.0 | 0.0 | 0.02 | 0.09 | 0.08 | 95 | 993.8 |
| 20260509133021 | 36 | 0 | 0.0 | 0.0 | 0.02 | 0.09 | 0.08 | 95 | 993.9 |
| 20260509132121 | 36 | 0 | 0.0 | 0.0 | 0.02 | 0.09 | 0.08 | 95 | 994.0 |
| 20260509131221 | 36 | 0 | 0.0 | 0.0 | 0.01 | 0.08 | 0.07 | 95 | 994.1 |
| 20260509130321 | 36 | 0 | 0.0 | 0.0 | 0.02 | 0.08 | 0.07 | 95 | 994.2 |
| 20260509125421 | 36 | 0 | 0.0 | 0.0 | 0.03 | 0.08 | 0.07 | 94 | 994.3 |
| 20260509124521 | 36 | 0 | 0.0 | 0.0 | 0.02 | 0.07 | 0.06 | 94 | 994.4 |
| 20260509123621 | 36 | 0 | 0.0 | 0.0 | 0.02 | 0.07 | 0.06 | 94 | 994.6 |
| 20260509122721 | 36 | 0 | 0.0 | 0.0 | 0.02 | 0.07 | 0.06 | 94 | 994.5 |
| 20260509121821 | 36 | 0 | 0.0 | 0.0 | 0.03 | 0.07 | 0.06 | 94 | 994.6 |
| 20260509120921 | 36 | 0 | 0.0 | 0.0 | 0.02 | 0.06 | 0.06 | 94 | 994.6 |
| 20260509120021 | 36 | 0 | 0.0 | 0.0 | 0.03 | 0.06 | 0.05 | 94 | 994.7 |
| 20260509115121 | 36 | 0 | 0.0 | 1.0 | 0.02 | 0.05 | 0.04 | 94 | 994.8 |
| 20260509114221 | 36 | 0 | 0.0 | 0.0 | 0.03 | 0.05 | 0.04 | 94 | 994.8 |
| 20260509113321 | 36 | 0 | 0.0 | 0.0 | 0.03 | 0.05 | 0.04 | 94 | 994.9 |
| 20260509111521 | 36 | 0 | 0.0 | 0.0 | 0.03 | 0.04 | 0.03 | 93 | 995.1 |
| 20260509105721 | 36 | 0 | 0.0 | 0.0 | 0.02 | 0.03 | 0.02 | 93 | 995.3 |
| 20260509103921 | 36 | 0 | 0.0 | 0.0 | 0.01 | 0.02 | 0.01 | 92 | 995.4 |
| 20260509103021 | 36 | 0 | 0.0 | 0.0 | 0.00 | 0.01 | 0.00 | 92 | 995.4 |
| 20260509102122 | 36 | 0 | 0.0 | 0.0 | 0.00 | 0.01 | 0.00 | 91 | 995.4 |
| 20260509101221 | 36 | 0 | 0.0 | 0.0 | 0.00 | 0.01 | 0.00 | 91 | 995.5 |
| 20260509100321 | 36 | 0 | 0.0 | 0.0 | 0.00 | 0.01 | 0.00 | 91 | 995.4 |
| 20260509095421 | 36 | 0 | 0.0 | 0.0 | 0.00 | 0.01 | 0.00 | 91 | 995.5 |
| 20260509093621 | 37 | 0 | 0.0 | 0.0 | 0.00 | 0.01 | 0.00 | 91 | 995.6 |
| 20260509092721 | 37 | 0 | 0.0 | 0.0 | 0.00 | 0.01 | 0.00 | 91 | 995.7 |
| 20260509091821 | 37 | 0 | 0.0 | 0.0 | 0.00 | 0.01 | 0.00 | 91 | 995.7 |
| 20260509090921 | 37 | 0 | 0.0 | 2.0 | 0.00 | 0.01 | 0.00 | 91 | 995.7 |
| 20260509090021 | 37 | 0 | 0.0 | 2.0 | 0.00 | 0.01 | 0.00 | 90 | 995.8 |
| 20260509085121 | 37 | 0 | 0.0 | 0.0 | 0.00 | 0.01 | 0.00 | 90 | 995.8 |
| 20260509084222 | 37 | 0 | 0.0 | 0.0 | 0.00 | 0.01 | 0.00 | 90 | 995.9 |
| 20260509083322 | 37 | 0 | 0.0 | 0.0 | 0.00 | 0.01 | 0.00 | 90 | 996.1 |
| 20260509082422 | 37 | 0 | 0.0 | 0.0 | 0.00 | 0.01 | 0.00 | 89 | 996.1 |
| 20260509081521 | 37 | 0 | 0.0 | 0.0 | 0.00 | 0.01 | 0.00 | 89 | 996.2 |
| 20260509080621 | 37 | 0 | 0.0 | 0.0 | 0.00 | 0.01 | 0.00 | 89 | 996.2 |
| 20260509074821 | 38 | 0 | 0.0 | 0.0 | 0.00 | 0.01 | 0.01 | 88 | 996.4 |
| 20260509072121 | 38 | 0 | 0.0 | 0.0 | 0.00 | 0.01 | 0.01 | 87 | 996.5 |
| 20260509071221 | 38 | 0 | 0.0 | 0.0 | 0.00 | 0.01 | 0.01 | 87 | 996.5 |
| 20260509070321 | 39 | 0 | 0.0 | 0.0 | 0.00 | 0.01 | 0.01 | 85 | 996.6 |
| 20260509065421 | 39 | 0 | 0.0 | 0.0 | 0.00 | 0.01 | 0.01 | 84 | 996.6 |
| 20260509063621 | 40 | 0 | 0.0 | 2.0 | 0.00 | 0.01 | 0.01 | 84 | 996.5 |
| 20260509062721 | 40 | 0 | 0.0 | 2.0 | 0.00 | 0.01 | 0.01 | 83 | 996.7 |
| 20260509061822 | 41 | 328 | 1.0 | 4.0 | 0.00 | 0.01 | 0.01 | 82 | 996.8 |
| 20260509060921 | 42 | 0 | 0.0 | 4.0 | 0.00 | 0.01 | 0.01 | 82 | 996.8 |
| 20260509060021 | 42 | 0 | 0.0 | 0.0 | 0.00 | 0.01 | 0.01 | 82 | 996.7 |
| 20260509055121 | 42 | 0 | 0.0 | 4.0 | 0.00 | 0.01 | 0.01 | 82 | 996.7 |
| 20260509053323 | 43 | 0 | 0.0 | 5.0 | 0.00 | 0.01 | 0.01 | 81 | 996.8 |
| 20260509052421 | 43 | 0 | 0.0 | 3.0 | 0.00 | 0.01 | 0.01 | 80 | 996.9 |
| 20260509051521 | 43 | 0 | 0.0 | 4.0 | 0.00 | 0.01 | 0.01 | 79 | 996.8 |
| 20260509050621 | 44 | 0 | 0.0 | 4.0 | 0.00 | 0.01 | 0.01 | 79 | 996.9 |
| 20260509045723 | 44 | 0 | 0.0 | 3.0 | 0.00 | 0.01 | 0.01 | 78 | 997.0 |
| 20260509044822 | 44 | 0 | 0.0 | 0.0 | 0.00 | 0.01 | 0.01 | 77 | 997.0 |
| 20260509043921 | 44 | 0 | 0.0 | 6.0 | 0.00 | 0.01 | 0.01 | 78 | 997.0 |
| 20260509042121 | 45 | 0 | 0.0 | 3.0 | 0.00 | 0.01 | 0.01 | 75 | 997.1 |
| 20260509041221 | 45 | 294 | 1.0 | 4.0 | 0.00 | 0.01 | 0.01 | 75 | 997.1 |
| 20260509035421 | 45 | 273 | 1.0 | 8.0 | 0.00 | 0.01 | 0.01 | 77 | 997.4 |
| 20260509034522 | 45 | 260 | 1.0 | 7.0 | 0.00 | 0.01 | 0.01 | 77 | 997.5 |
| 20260509032721 | 45 | 263 | 2.0 | 7.0 | 0.00 | 0.01 | 0.01 | 76 | 997.7 |
| 20260509031822 | 45 | 259 | 2.0 | 8.0 | 0.00 | 0.02 | 0.01 | 76 | 997.7 |
| 20260509030922 | 45 | 278 | 2.0 | 9.0 | 0.00 | 0.03 | 0.01 | 76 | 997.8 |
| 20260509030021 | 46 | 272 | 2.0 | 6.0 | 0.01 | 0.04 | 0.01 | 75 | 997.8 |
| 20260509025121 | 46 | 264 | 2.0 | 10.0 | 0.01 | 0.05 | 0.01 | 74 | 997.9 |
| 20260509024221 | 46 | 266 | 4.0 | 12.0 | 0.01 | 0.05 | 0.01 | 75 | 998.0 |
| 20260509023322 | 46 | 268 | 3.0 | 13.0 | 0.01 | 0.05 | 0.01 | 77 | 998.0 |
| 20260509022422 | 46 | 263 | 3.0 | 11.0 | 0.01 | 0.05 | 0.01 | 78 | 998.1 |
| 20260509021522 | 46 | 264 | 3.0 | 11.0 | 0.01 | 0.05 | 0.01 | 76 | 998.0 |
| 20260509020621 | 48 | 255 | 5.0 | 13.0 | 0.00 | 0.04 | 0.00 | 67 | 998.1 |
| 20260509015721 | 49 | 264 | 5.0 | 13.0 | 0.00 | 0.04 | 0.00 | 63 | 998.1 |
| 20260509014822 | 50 | 282 | 1.0 | 11.0 | 0.00 | 0.04 | 0.00 | 56 | 998.3 |
| 20260509013922 | 49 | 0 | 0.0 | 0.0 | 0.00 | 0.04 | 0.00 | 57 | 998.2 |
| 20260509013022 | 49 | 0 | 0.0 | 0.0 | 0.00 | 0.04 | 0.00 | 57 | 998.3 |
| 20260509012122 | 49 | 0 | 0.0 | 0.0 | 0.00 | 0.04 | 0.00 | 59 | 998.4 |
| 20260509011221 | 49 | 63 | 1.0 | 5.0 | 0.00 | 0.04 | 0.00 | 55 | 998.7 |
| 20260509010322 | 49 | 59 | 1.0 | 5.0 | 0.00 | 0.04 | 0.00 | 57 | 998.7 |
| 20260509005422 | 49 | 46 | 1.0 | 6.0 | 0.00 | 0.04 | 0.00 | 59 | 998.8 |
| 20260509003621 | 49 | 64 | 1.0 | 5.0 | 0.00 | 0.04 | 0.00 | 60 | 999.0 |
| 20260509002722 | 49 | 64 | 2.0 | 5.0 | 0.00 | 0.04 | 0.00 | 62 | 999.2 |